Regional Weather Roundup
Issued by NWS Portland, ME

Home | Current Version | Previous Version | Text Only | Print | Product List | Glossary On
Versions: 1 2 3 4 5 6 7 8 9 10 11 12 13 14 15 16 17 18 19 20 21 22 23 24 25 26 27 28 29 30 31 32 33 34 35 36 37 38 39 40 41 42 43 44 45 46 47 48 49 50
000
ASUS41 KGYX 201910
RWRGYX
WEATHER ROUNDUP FOR MAINE AND NEW HAMPSHIRE
NATIONAL WEATHER SERVICE GRAY ME
200 PM EST SAT DEC 20 2014

MEZ002-005-006-010-012-015-018-020-021-024-026-027-029-202000-
MAINE

CITY           SKY/WX    TMP DP  RH WIND       PRES   REMARKS
PORTLAND       MOSUNNY   33  21  61 E6        30.30S
SANFORD        SUNNY     30  19  64 NE3       30.29R
BAR HARBOR     CLOUDY    27  23  86 N12       30.31S WCI  16
WISCASSET      SUNNY     33  20  58 VRB5      30.30S
ROCKLAND       CLOUDY    27  21  80 NE9G20    30.29S
FRYEBURG       SUNNY     32  16  51 CALM      30.27S
LEWISTONAUBURN SUNNY     30  18  59 N5        30.28S
AUGUSTA        MOSUNNY   24  17  74 N9        30.30R
WATERVILLE     CLOUDY    23  14  68 NE6       30.27S
BANGOR         CLOUDY    23  18  81 N10       30.33S WCI  12
GREENVILLE       N/A     20  15  81 CALM      30.21
MILLINOCKET    CLOUDY    20  15  81 N8        30.34F HAZE
HOULTON        CLOUDY    20  15  81 N6        30.31S
PRESQUE ISLE   CLOUDY    18   5  57 NW3       30.33S
FRENCHVILLE    LGT SNOW  15  11  83 S3        30.30R FOG
CARIBOU        LGT SNOW  17  11  77 CALM      30.33R
$$

NHZ002-005-008-009-011-012-014-202000-
NEW HAMPSHIRE

CITY           SKY/WX    TMP DP  RH WIND       PRES   REMARKS
PORTSMOUTH     PTSUNNY   33  22  63 NE7       30.27S
ROCHESTER      MOSUNNY   33  21  61 NE5       30.27R
NASHUA         CLOUDY    33  20  59 NE5       30.28R
MANCHESTER     CLOUDY    34  19  54 N9        30.25F
CONCORD        PTSUNNY   33  19  56 NW3       30.27S
LACONIA        SUNNY     34  18  51 CALM      30.25R
PLYMOUTH       FAIR      33  22  63 E3        30.26R
BERLIN         SUNNY     27  14  58 CALM      30.22S
WHITEFIELD     SUNNY     26  19  74 CALM      30.23S
JAFFREY        PTSUNNY   32  17  54 N3        30.22S
KEENE          SUNNY     36  18  48 NE5       30.24S
LEBANON        SUNNY     30  15  53 CALM      30.26R
MT WASHINGTON  MOSUNNY   25   0  33 E15         N/A  WCI  12
$$

VTZ005-007-008-202000-
VERMONT

CITY           SKY/WX    TMP DP  RH WIND       PRES   REMARKS
ST JOHNSBURY     N/A     27  16  63 MISG      30.24F
MONTPELIER     SUNNY     25  15  66 CALM      30.26S
BURLINGTON     MOSUNNY   26  15  63 CALM      30.29S
$$

MAZ007-012-024-CTZ003-RIZ002-NYZ038-NYZ072-202000-
SOUTHERN NEW ENGLAND AND NY

CITY           SKY/WX    TMP DP  RH WIND       PRES   REMARKS
BOSTON         CLOUDY    34  24  67 N7        30.27S
WORCESTER      CLOUDY    31  20  63 E3        30.21S
NANTUCKET      CLOUDY    42  34  73 N9        30.20F
PROVIDENCE     CLOUDY    36  24  62 N12       30.25S
HARTFORD       CLOUDY    31  19  61 N5        30.26S
ALBANY         CLOUDY    29  18  63 W3        30.29F
NEW YORK CITY  CLOUDY    32  20  61 CALM      30.26S
$$

ANZ081-ANZ082-ANZ150-NHZ014-MEZ023>029-202000-
COASTAL MARINE OBSERVATIONS

STATION/POSITION TIME  TEMP    WIND        PRES    WAVE
                       AIR SEA DIR/SP/G            HT/PER
                 (UTC) (F)     (DEG/KT/KT) (MB)    (FT/S)
MOUNT DESERT ROC 1900   31                 1024.4F
MATINICUS ROCK   1900           10/ 19/ 22 1024.7F
PORTLAND WX BUOY 1850   30 43   40/  2/  4 1026.1R   2/ 4
WELLS            1800   30 39   40/  8/ 10 1025.0F
ISLE OF SHOALS   1900   33      30/ 19/ 22 1024.3R
JEFFREYS LEDGE   1821      49                N/A     4/ 4
CASHES LEDGE BUO 1850   33 48   20/ 17/ 21 1024.3R   4/ 5
$$

.............KEY..............
   WCI - WIND CHILL
   TC  - TEMPERATURE IN CELSIUS
   VSB - VISIBILITY IN MILES
   HX  - HEAT INDEX
   FAIR- INDICATES FEW OR NO CLOUDS BELOW 12,000 FT, WITH NO
         SIGNIFICANT WEATHER AND/OR OBSTRUCTIONS TO VISIBILITY.




USA.gov is the U.S. government's official web portal to all federal, state and local government web resources and services.